Hourly Weather Aliseda

Today, 5 August, Thursday

Time Temperature Precipitation Wind Pressure Humidity
00:00 +20°C° 0 mm 2 mps 724 mmHg 57%
01:00 +19°C° 0 mm 2 mps 724 mmHg 60%
02:00 +18°C° 0 mm 2 mps 723 mmHg 62%
03:00 +19°C° 0 mm 1 mps 723 mmHg 64%
04:00 +19°C° 0 mm 1 mps 723 mmHg 64%
05:00 +18°C° 0 mm 1 mps 723 mmHg 63%
06:00 +18°C° 0 mm 1 mps 723 mmHg 63%
07:00 +21°C° 0 mm 1 mps 723 mmHg 52%
08:00 +24°C° 0 mm 1 mps 724 mmHg 41%
09:00 +27°C° 0 mm 2 mps 724 mmHg 30%
10:00 +30°C° 0 mm 2 mps 724 mmHg 24%
11:00 +32°C° 0 mm 2 mps 724 mmHg 19%
12:00 +35°C° 0 mm 3 mps 724 mmHg 14%
13:00 +36°C° 0 mm 3 mps 723 mmHg 14%
14:00 +37°C° 0 mm 3 mps 723 mmHg 14%
15:00 +38°C° 0 mm 4 mps 722 mmHg 15%
16:00 +37°C° 0 mm 5 mps 722 mmHg 18%
17:00 +36°C° 0 mm 5 mps 722 mmHg 21%
18:00 +35°C° 0 mm 6 mps 722 mmHg 24%
19:00 +32°C° 0 mm 6 mps 722 mmHg 32%
20:00 +28°C° 0 mm 5 mps 722 mmHg 41%
21:00 +26°C° 0 mm 5 mps 721 mmHg 49%
22:00 +23°C° 0 mm 4 mps 721 mmHg 57%
23:00 +21°C° 0 mm 3 mps 721 mmHg 64%

Tomorrow, 6 August, Friday

Time Temperature Precipitation Wind Pressure Humidity
00:00 +19°C° 0 mm 2 mps 721 mmHg 71%
01:00 +18°C° 0 mm 2 mps 721 mmHg 75%
02:00 +17°C° 0 mm 2 mps 720 mmHg 79%
03:00 +16°C° 0 mm 1 mps 720 mmHg 83%
04:00 +16°C° 0 mm 1 mps 720 mmHg 84%
05:00 +15°C° 0 mm 1 mps 720 mmHg 85%
06:00 +15°C° 0 mm 1 mps 720 mmHg 86%
07:00 +19°C° 0 mm 1 mps 720 mmHg 71%
08:00 +21°C° 0 mm 2 mps 721 mmHg 56%
09:00 +25°C° 0 mm 2 mps 721 mmHg 41%
10:00 +27°C° 0 mm 2 mps 721 mmHg 33%
11:00 +29°C° 0 mm 3 mps 721 mmHg 25%
12:00 +33°C° 0 mm 3 mps 721 mmHg 17%
13:00 +34°C° 0 mm 4 mps 720 mmHg 15%
14:00 +35°C° 0 mm 5 mps 720 mmHg 13%
15:00 +36°C° 0 mm 5 mps 719 mmHg 11%
16:00 +34°C° 0 mm 6 mps 719 mmHg 14%
17:00 +33°C° 0 mm 6 mps 719 mmHg 16%
18:00 +30°C° 0 mm 7 mps 719 mmHg 19%
19:00 +27°C° 0 mm 6 mps 719 mmHg 28%
20:00 +23°C° 0 mm 6 mps 719 mmHg 38%
21:00 +20°C° 0 mm 5 mps 719 mmHg 47%
22:00 +17°C° 0 mm 5 mps 719 mmHg 53%
23:00 +17°C° 0 mm 4 mps 719 mmHg 59%

Day after tomorrow, 7 August, Saturday

Time Temperature Precipitation Wind Pressure Humidity
00:00 +16°C° 0 mm 3 mps 719 mmHg 65%
01:00 +16°C° 0 mm 3 mps 719 mmHg 67%
02:00 +15°C° 0 mm 2 mps 719 mmHg 69%
03:00 +15°C° 0 mm 2 mps 719 mmHg 72%
04:00 +14°C° 0 mm 2 mps 719 mmHg 74%
05:00 +14°C° 0 mm 2 mps 720 mmHg 76%
06:00 +14°C° 0 mm 1 mps 720 mmHg 78%
07:00 +17°C° 0 mm 2 mps 720 mmHg 67%
08:00 +19°C° 0 mm 2 mps 721 mmHg 57%
09:00 +22°C° 0 mm 3 mps 721 mmHg 46%
10:00 +25°C° 0 mm 3 mps 721 mmHg 41%
11:00 +27°C° 0 mm 3 mps 721 mmHg 37%
12:00 +28°C° 0 mm 3 mps 721 mmHg 32%
13:00 +29°C° 0 mm 3 mps 721 mmHg 29%
14:00 +30°C° 0 mm 4 mps 720 mmHg 25%
15:00 +33°C° 0 mm 4 mps 720 mmHg 22%
16:00 +32°C° 0 mm 4 mps 720 mmHg 22%
17:00 +30°C° 0 mm 5 mps 720 mmHg 22%
18:00 +30°C° 0 mm 5 mps 720 mmHg 22%
19:00 +27°C° 0 mm 5 mps 720 mmHg 29%
20:00 +23°C° 0 mm 5 mps 721 mmHg 37%
21:00 +20°C° 0 mm 4 mps 721 mmHg 44%
22:00 +19°C° 0 mm 4 mps 721 mmHg 49%
23:00 +18°C° 0 mm 3 mps 721 mmHg 55%

8 August, Sunday

Time Temperature Precipitation Wind Pressure Humidity
00:00 +16°C° 0 mm 2 mps 721 mmHg 60%
01:00 +15°C° 0 mm 2 mps 721 mmHg 63%
02:00 +15°C° 0 mm 2 mps 721 mmHg 66%
03:00 +14°C° 0 mm 1 mps 721 mmHg 69%
04:00 +14°C° 0 mm 1 mps 721 mmHg 69%
05:00 +14°C° 0 mm 1 mps 721 mmHg 70%
06:00 +13°C° 0 mm 1 mps 721 mmHg 71%
07:00 +16°C° 0 mm 1 mps 722 mmHg 61%
08:00 +20°C° 0 mm 1 mps 723 mmHg 50%
09:00 +23°C° 0 mm 2 mps 723 mmHg 40%
10:00 +26°C° 0 mm 1 mps 723 mmHg 33%
11:00 +29°C° 0 mm 1 mps 723 mmHg 27%
12:00 +31°C° 0 mm 1 mps 723 mmHg 20%
13:00 +32°C° 0 mm 1 mps 723 mmHg 18%
14:00 +34°C° 0 mm 2 mps 723 mmHg 15%
15:00 +34°C° 0 mm 2 mps 722 mmHg 13%
16:00 +34°C° 0 mm 2 mps 722 mmHg 13%
17:00 +34°C° 0 mm 2 mps 722 mmHg 13%
18:00 +34°C° 0 mm 2 mps 722 mmHg 13%
19:00 +29°C° 0 mm 2 mps 722 mmHg 19%
20:00 +26°C° 0 mm 2 mps 722 mmHg 26%
21:00 +23°C° 0 mm 2 mps 722 mmHg 33%
22:00 +21°C° 0 mm 2 mps 722 mmHg 40%
23:00 +19°C° 0 mm 2 mps 722 mmHg 47%

9 August, Monday

Time Temperature Precipitation Wind Pressure Humidity
00:00 +19°C° 0 mm 1 mps 723 mmHg 53%
01:00 +18°C° 0 mm 1 mps 722 mmHg 56%
02:00 +18°C° 0 mm 1 mps 722 mmHg 58%
03:00 +16°C° 0 mm 1 mps 722 mmHg 60%
04:00 +16°C° 0 mm 1 mps 723 mmHg 61%
05:00 +14°C° 0 mm 0 mps 723 mmHg 61%
06:00 +14°C° 0 mm 0 mps 723 mmHg 62%
07:00 +17°C° 0 mm 0 mps 724 mmHg 52%
08:00 +21°C° 0 mm 0 mps 724 mmHg 43%
09:00 +24°C° 0 mm 0 mps 725 mmHg 33%
10:00 +28°C° 0 mm 1 mps 725 mmHg 27%
11:00 +30°C° 0 mm 1 mps 725 mmHg 22%
12:00 +34°C° 0 mm 2 mps 725 mmHg 17%
13:00 +34°C° 0 mm 2 mps 725 mmHg 15%
14:00 +35°C° 0 mm 3 mps 724 mmHg 13%
15:00 +36°C° 0 mm 3 mps 724 mmHg 11%
16:00 +35°C° 0 mm 3 mps 724 mmHg 12%
17:00 +35°C° 0 mm 3 mps 723 mmHg 12%
18:00 +34°C° 0 mm 2 mps 723 mmHg 12%
19:00 +31°C° 0 mm 2 mps 723 mmHg 16%
20:00 +28°C° 0 mm 2 mps 723 mmHg 19%
21:00 +26°C° 0 mm 1 mps 723 mmHg 23%
22:00 +24°C° 0 mm 2 mps 723 mmHg 30%
23:00 +23°C° 0 mm 2 mps 723 mmHg 38%

10 August, Tuesday

Time Temperature Precipitation Wind Pressure Humidity
00:00 +21°C° 0 mm 2 mps 723 mmHg 45%
01:00 +21°C° 0 mm 1 mps 723 mmHg 47%
02:00 +21°C° 0 mm 1 mps 723 mmHg 49%
03:00 +20°C° 0 mm 1 mps 723 mmHg 52%
04:00 +20°C° 0 mm 1 mps 723 mmHg 52%
05:00 +19°C° 0 mm 1 mps 723 mmHg 53%
06:00 +17°C° 0 mm 0 mps 723 mmHg 54%
07:00 +22°C° 0 mm 1 mps 723 mmHg 45%
08:00 +25°C° 0 mm 1 mps 724 mmHg 36%
09:00 +28°C° 0 mm 1 mps 724 mmHg 27%
10:00 +31°C° 0 mm 1 mps 724 mmHg 23%
11:00 +34°C° 0 mm 2 mps 724 mmHg 18%
12:00 +36°C° 0 mm 2 mps 724 mmHg 13%
13:00 +37°C° 0 mm 2 mps 724 mmHg 12%
14:00 +38°C° 0 mm 3 mps 723 mmHg 10%
15:00 +39°C° 0 mm 3 mps 723 mmHg 9%
16:00 +38°C° 0 mm 3 mps 722 mmHg 10%
17:00 +38°C° 0 mm 4 mps 722 mmHg 10%
18:00 +37°C° 0 mm 4 mps 722 mmHg 11%
19:00 +34°C° 0 mm 3 mps 722 mmHg 18%
20:00 +29°C° 0 mm 3 mps 722 mmHg 24%
21:00 +26°C° 0 mm 3 mps 722 mmHg 31%
22:00 +25°C° 0 mm 2 mps 722 mmHg 36%
23:00 +24°C° 0 mm 2 mps 722 mmHg 40%
Show more